Location: Central Falls
(41.8900°N, 71.3929°W)
Time: 16:40:16
(UTC+00:00)

Vanguard 1 Rocket - Pass Details

Date: 04 December 2023
Orbit: 654 x 4218 km, 34.3° (Epoch: 25 February)

Event Time Altitude Azimuth Distance (km) Brightness Sun altitude
Rises 05:32:34 0° 178° (S) 8,392 - -67.0°
Exits shadow 05:41:01 - 163° (SSE) 7,640 11.9 -66.0°
Reaches altitude 10° 05:44:29 10° 156° (SSE) 7,360 11.8 -65.6°
Maximum altitude 05:53:23 13° 135° (SE) 6,794 11.7 -64.4°
Drops below altitude 10° 06:01:22 10° 114° (ESE) 6,596 11.8 -63.4°
Sets 06:10:08 0° 91° (E) 6,876 12.2 -62.1°
